Home   Weather   Pocatello   Past weeks

Flag for USA Past Weather in Pocatello, Idaho, USA — Yesterday and Last 2 Weeks

Now
83 °F

Passing clouds.


Feels Like: 80 °F
Forecast: 48 / 85 °F
Wind: 14 mph from West

Location: Pocatello Regional Airport

Current Time: Aug 16, 2017 at 4:18:21 pm

Latest Report: Aug 16, 2017 at 2:53 pm


Visibility: 10 mi

Pressure: 29.96 "Hg (25.68 "Hg at 1357m altitude)

Humidity: 19%

Dew Point: 36 °F

Location of PocatelloLocation

Past Weather in Pocatello — Graph

°F

Pocatello Temperature Yesterday

Maximum temperature yesterday: 79 °F (at 4:53 pm)
Minimum temperature yesterday: 48 °F (at 6:53 am)
Average temperature yesterday: 63 °F

High & Low Weather Summary for the Past Weeks

 TemperatureHumidityPressure
High96 °F (Aug 1, 2:53 pm)97% (Aug 9, 6:53 am)30.13 "Hg (Aug 9, 6:53 am)
Low43 °F (Aug 16, 6:53 am)8% (Aug 2, 2:53 pm)29.68 "Hg (Aug 5, 1:53 am)
Average71 °F44%29.92 "Hg
* Reported Aug 1 2:53 pm — Aug 16 2:53 pm, Pocatello. Weather by CustomWeather, © 2017

Note: Actual official high and low records may vary slightly from our data, if they occured in-between our weather recording intervals... More about our weather records

Advertising

Pocatello Weather History for the Previous 24 Hours

Scroll right to see more
 ConditionsComfort  
Time TempWeatherWind HumidityBarometerVisibility
2:53 pm
Wed, Aug 16
83 °FPassing clouds.14 mph19%29.96 "Hg10 mi
1:53 pm84 °FPassing clouds.12 mph17%29.96 "Hg10 mi
12:53 pm82 °FSunny.8 mph18%29.98 "Hg10 mi
11:53 am77 °FSunny.5 mph24%29.99 "Hg10 mi
10:53 am72 °FSunny.3 mph31%29.99 "Hg10 mi
9:53 am65 °FSunny.3 mph42%29.99 "Hg10 mi
8:53 am59 °FSunny.No wind56%30.01 "Hg10 mi
7:53 am52 °FSunny.No wind72%29.97 "Hg10 mi
6:53 am43 °FClear.3 mph82%29.97 "Hg10 mi
5:53 am46 °FClear.No wind77%29.94 "Hg10 mi
4:53 am44 °FClear.6 mph82%29.94 "Hg10 mi
3:53 am48 °FClear.5 mph71%29.93 "Hg10 mi
2:53 am45 °FClear.7 mph82%29.93 "Hg10 mi
1:53 am51 °FClear.3 mph69%29.90 "Hg10 mi
12:53 am52 °FClear.5 mph72%29.91 "Hg10 mi
11:53 pm
Tue, Aug 15
53 °FClear.3 mph69%29.91 "Hg10 mi
10:53 pm61 °FClear.3 mph52%29.89 "Hg10 mi
9:53 pm64 °FClear.6 mph47%29.88 "Hg10 mi
8:53 pm62 °FSunny.5 mph46%29.88 "Hg10 mi
7:53 pm76 °FPassing clouds.3 mph25%29.84 "Hg10 mi
6:53 pm78 °FPassing clouds.6 mph23%29.84 "Hg10 mi
5:53 pm79 °FPassing clouds.3 mph23%29.83 "Hg10 mi
4:53 pm79 °FScattered clouds.5 mph25%29.83 "Hg10 mi
Weather by CustomWeather, © 2017

See weather overviewHow to use our weather pages